User: anonymous   Login
Location: Fredericton
(45.9636°N, 66.6431°W)
Time: 15:48:26
(UTC-04:00)
Language:

ISS - Orbit

View from above orbital plane
View from above orbital plane
View from above satellite
View from above satellite

Ground track
Ground track

The orbit data is extracted from the following two-line orbital elements,

1 25544U 98067A   21337.49738641 -.00000450  00000-0  00000+0 0  9997
2 25544  51.6389 225.5617 0004535 264.0051 276.0775 15.48792552314838
Epoch (UTC): 03 December 2021 11:56:14
Eccentricity: 0.0004535
inclination: 51.6389°
perigee height: 417 km
apogee height: 423 km
right ascension of ascending node: 225.5617°
argument of perigee: 264.0051°
revolutions per day: 15.48792552
mean anomaly at epoch: 276.0775°
orbit number at epoch: 31483

The dashed part of the orbit path shows where the satellite is in the earth's shadow,  

DLR